Weather History for KCOU - February, 2011

Change the Weather History Date:

Thursday, February 3, 2011

  Actual Average Record
Temperature  
Mean Temperature 4 °F 31 °F  
Max Temperature 18 °F 40 °F 70 °F (1962)
Min Temperature -10 °F 22 °F -13 °F (1996)
Degree Days  
Heating Degree Days 61 34  
Month to date heating degree days 162 102  
Since 1 July heating degree days 3320 3191  
Cooling Degree Days 0 0  
Month to date cooling degree days 0 0  
Year to date cooling degree days 0 0  
Moisture  
Dew Point -5 °F    
Average Humidity 64    
Maximum Humidity 91    
Minimum Humidity 36    
Precipitation  
Precipitation 0.00 in 0.07 in 1.78 in (1903)
Month to date precipitation 0.82 0.20  
Year to date precipitation 1.65 2.12  
Snow  
Snow 0.00 in 0.20 in 4.50 in (1912)
Month to date snowfall 17.7 0.6  
Since 1 July snowfall 40.0 12.0  
Snow Depth 0.00 in    
Sea Level Pressure  
Sea Level Pressure 30.57 in    
Wind  
Wind Speed 5 mph (WSW)    
Max Wind Speed 9 mph    
Max Gust Speed 24 mph    
Visibility 10 miles    
Events      
T = Trace of Precipitation, MM = Missing Value Source: NWS Daily Summary

Daily Weather History Graph

Daily Weather History Graph

Search for Another Location

Airport or City:

Trip Planner

Search our weather history database for the weather conditions in past years. The results will help you decide how hot, cold, wet, or windy it might be!

Date:

Astronomy

Feb. 03, 2011 Rise Set
Actual Time 7:13 AM CST 5:32 PM CST
Civil Twilight 6:45 AM CST 6:00 PM CST
Nautical Twilight 6:13 AM CST 6:32 PM CST
Astronomical Twilight 5:42 AM CST 7:03 PM CST
Moon 7:15 AM CST (2/3) 6:26 PM CST (2/3)
Length of Visible Light 11h 15m
Length of Day
10h 19m
New Moon, 0% of the Moon is Illuminated
Feb 3
New Moon
Feb 11
First Quarter
Feb 18
Full
Feb 24
Last Quarter
Mar 4
New

Hourly Weather History & Observations

Time (CST) Temp. Windchill Dew Point Humidity Pressure Visibility Wind Dir Wind Speed Gust Speed Precip Events Conditions
12:54 AM 1.0 °F -11.7 °F -7.1 °F 69% 30.65 in 10.0 mi NW 6.9 mph - N/A   Clear
1:54 AM -0.9 °F -12.7 °F -8.0 °F 72% 30.65 in 10.0 mi NW 5.8 mph - N/A   Clear
2:54 AM -0.9 °F -12.7 °F -7.1 °F 75% 30.65 in 10.0 mi West 5.8 mph - N/A   Clear
3:54 AM -2.9 °F -13.3 °F -8.0 °F 79% 30.65 in 10.0 mi WSW 4.6 mph - N/A   Clear
4:54 AM -2.9 °F -13.3 °F -7.1 °F 82% 30.64 in 10.0 mi WNW 4.6 mph - N/A   Clear
5:54 AM -4.0 °F -12.4 °F -7.6 °F 85% 30.59 in 10.0 mi WNW 3.5 mph - N/A   Clear
6:54 AM -4.0 °F -14.6 °F -8.0 °F 83% 30.66 in 6.0 mi West 4.6 mph - N/A   Clear
7:54 AM -5.1 °F -20.4 °F -8.0 °F 87% 30.67 in 10.0 mi West 8.1 mph - N/A   Clear
8:54 AM -5.8 °F -18.4 °F -7.6 °F 92% 30.61 in 10.0 mi WSW 5.8 mph - N/A   Clear
9:54 AM 1.9 °F -5.6 °F -4.0 °F 76% 30.65 in 10.0 mi North 3.5 mph - N/A   Clear
10:54 AM 8.1 °F - -2.0 °F 64% 30.63 in 10.0 mi Calm Calm - N/A   Clear
11:54 AM 9.0 °F -2.2 °F -0.9 °F 64% 30.62 in 10.0 mi SSW 6.9 mph - N/A   Clear
12:54 PM 14.0 °F 5.1 °F 3.0 °F 62% 30.58 in 10.0 mi SSW 5.8 mph - N/A   Clear
1:54 PM 15.1 °F 5.2 °F -0.9 °F 49% 30.54 in 10.0 mi SSW 6.9 mph - N/A   Clear
2:54 PM 16.0 °F 6.3 °F -0.0 °F 49% 30.53 in 10.0 mi SW 6.9 mph - N/A   Clear
3:54 PM 18.0 °F 7.7 °F -2.0 °F 41% 30.52 in 10.0 mi WSW 8.1 mph - N/A   Clear
4:54 PM 16.0 °F 8.8 °F -7.1 °F 36% 30.51 in 10.0 mi SW 4.6 mph - N/A   Clear
5:54 PM 16.0 °F 10.4 °F -5.1 °F 39% 30.51 in 10.0 mi SW 3.5 mph - N/A   Clear
6:54 PM 14.0 °F 8.2 °F -4.0 °F 45% 30.50 in 10.0 mi SW 3.5 mph - N/A   Clear
7:54 PM 10.9 °F 4.7 °F -4.0 °F 51% 30.50 in 10.0 mi SSW 3.5 mph - N/A   Clear
8:54 PM 10.9 °F 4.7 °F -6.0 °F 47% 30.47 in 10.0 mi WSW 3.5 mph - N/A   Clear
9:54 PM 12.0 °F - -2.0 °F 53% 30.46 in 10.0 mi Calm Calm - N/A   Clear
10:54 PM 8.1 °F -2.0 °F -2.9 °F 61% 30.46 in 10.0 mi WSW 5.8 mph - N/A   Clear
11:54 PM 12.0 °F 2.7 °F -4.0 °F 49% 30.45 in 10.0 mi WSW 5.8 mph - N/A   Clear